This demonstration page uses our WeatherBlox Daily Observations layout. Learn more.

Left ArrowRight Arrow

40.92945, -100.16068

Hourly Observations for September 5, 2016

Temp ( °F °C ) Dew Point ( °F °C ) Humidity (%) Winds ( mph kmh ) Pressure ( in mb ) Visibility ( mi km ) Precip ( " mm )
12:15 am 00:15 Clear 78 25.5 66 19 67 67 S 16 26 29.59 1002 10 16 N/A
12:35 am 00:35 Clear 77 25.2 66 19 69 69 S 16 26 29.59 1002 10 16 N/A
12:55 am 00:55 Clear 76 24.7 66 18.9 70 70 S 15 24 29.59 1002 10 16 N/A
1:15 am 01:15 Clear 76 24.5 66 19 72 72 S 16 26 29.62 1003 10 16 N/A
1:35 am 01:35 Clear 76 24.2 66 18.8 72 72 S 15 24 29.65 1004 10 16 N/A
1:55 am 01:55 Clear 75 23.9 66 18.9 74 74 S 13 20 29.65 1004 10 16 N/A
2:15 am 02:15 Clear 75 23.7 66 18.8 74 74 S 6 9 29.65 1004 10 16 N/A
2:35 am 02:35 Clear 75 23.7 66 18.8 74 74 N N/A 29.65 1004 10 16 N/A
2:55 am 02:55 Clear 74 23.4 65 18.6 75 75 SSE 3 6 29.65 1004 10 16 N/A
3:15 am 03:15 Clear 74 23.1 66 18.7 76 76 SSE 6 9 29.65 1004 10 16 N/A
3:35 am 03:35 Clear 74 23.1 66 18.7 76 76 SSE 8 13 29.65 1004 10 16 N/A
3:55 am 03:55 Clear 73 22.7 66 18.7 78 78 SE 5 7 29.65 1004 10 16 N/A
4:15 am 04:15 Clear 73 22.5 65 18.6 79 79 SE 5 7 29.65 1004 10 16 N/A
4:35 am 04:35 Clear 71 21.9 65 18.5 81 81 SSE 8 13 29.65 1004 10 16 N/A
4:55 am 04:55 Clear 70 21.3 65 18.5 84 84 SSE 10 17 29.65 1004 10 16 N/A
5:15 am 05:15 Clear 70 21 65 18.4 85 85 SSE 5 7 29.65 1004 10 16 N/A
5:35 am 05:35 Clear 69 20.5 65 18.5 88 88 SE 3 6 29.68 1005 10 16 N/A
5:55 am 05:55 Clear 69 20.5 65 18.4 88 88 SE 3 6 29.68 1005 10 16 N/A
6:15 am 06:15 Clear 68 20 64 18 88 88 E 5 7 29.68 1005 10 16 N/A
6:35 am 06:35 Clear 68 20.1 65 18.3 89 89 SE 5 7 29.68 1005 10 16 N/A
6:55 am 06:55 Clear 68 20.2 65 18.2 88 88 SSE 7 11 29.68 1005 10 16 N/A
7:15 am 07:15 Sunny 68 20.2 65 18.2 88 88 SE 5 7 29.68 1005 10 16 N/A
7:35 am 07:35 Sunny 69 20.6 65 18.5 88 88 SE 7 11 29.68 1005 10 16 N/A
7:55 am 07:55 Sunny 70 20.9 65 18.6 87 87 SSE 9 15 29.65 1004 10 16 N/A
8:15 am 08:15 Sunny 71 21.5 66 18.8 85 85 SE 7 11 29.65 1004 10 16 N/A
8:35 am 08:35 Sunny 72 22.2 66 19 82 82 SE 8 13 29.68 1005 10 16 N/A
8:55 am 08:55 Sunny 74 23.1 67 19.2 79 79 SSE 12 19 29.68 1005 10 16 N/A
9:15 am 09:15 Sunny 75 24 67 19.3 75 75 S 15 24 29.65 1004 10 16 N/A
9:35 am 09:35 Sunny 76 24.7 66 19 71 71 S 18 30 29.62 1003 10 16 N/A
9:55 am 09:55 Sunny 78 25.5 67 19.2 68 68 S 17 28 29.65 1004 10 16 N/A
10:15 am 10:15 Sunny 79 25.9 67 19.2 67 67 SSW 17 28 29.65 1004 10 16 N/A
10:35 am 10:35 Sunny 79 26.3 66 19.1 65 65 S 17 28 29.65 1004 10 16 N/A
10:55 am 10:55 Sunny 81 27 67 19.3 63 63 SSW 15 24 29.65 1004 10 16 N/A
11:15 am 11:15 Sunny 82 27.6 67 19.4 61 61 SSW 13 20 29.65 1004 10 16 N/A
11:35 am 11:35 Sunny 82 27.9 67 19.5 60 60 SSW 12 19 29.68 1005 10 16 N/A
11:55 am 11:55 Sunny 83 28.5 67 19.4 58 58 SSW 12 19 29.68 1005 10 16 N/A
12:35 pm 12:35 Sunny 86 29.8 67 19.2 53 53 SSW 13 20 29.62 1003 10 16 N/A
12:55 pm 12:55 Sunny 87 30.3 67 19.2 51 51 SSW 13 20 29.62 1003 10 16 N/A
1:15 pm 13:15 Sunny 87 30.6 66 19 50 50 S 14 22 29.62 1003 10 16 N/A
1:35 pm 13:35 Sunny 88 31.2 67 19.2 49 49 SSW 10 17 29.62 1003 10 16 N/A
1:55 pm 13:55 Sunny 89 31.4 67 19.2 48 48 SSW 16 26 29.62 1003 10 16 N/A
2:15 pm 14:15 Sunny 89 31.8 67 19.2 47 47 S 17 28 29.62 1003 10 16 N/A
2:35 pm 14:35 Sunny 90 32 66 19.1 46 46 S 17 28 29.62 1003 10 16 N/A
2:55 pm 14:55 Partly Cloudy 90 32.3 66 19 45 45 S 15 24 29.59 1002 10 16 N/A
3:15 pm 15:15 Partly Cloudy 91 32.5 66 19 45 45 S 13 20 29.56 1001 10 16 N/A
3:35 pm 15:35 Sunny 91 33 67 19.3 44 44 S 16 26 29.56 1001 10 16 N/A
3:55 pm 15:55 Partly Cloudy 90 32.2 66 18.8 45 45 S 14 22 29.56 1001 10 16 N/A
4:15 pm 16:15 Mostly Cloudy 92 33.1 66 19.1 44 44 S 17 28 29.56 1001 10 16 N/A
4:35 pm 16:35 Partly Cloudy 92 33.1 66 19 43 43 S 14 22 29.56 1001 10 16 N/A
4:55 pm 16:55 Sunny 91 33 65 18.3 42 42 S 15 24 29.56 1001 7 11 N/A
5:15 pm 17:15 Sunny 92 33.1 65 18.6 42 42 S 12 19 29.56 1001 10 16 N/A
5:35 pm 17:35 Sunny 91 33 66 18.8 43 43 S 14 22 29.56 1001 10 16 N/A
5:55 pm 17:55 Sunny 91 32.7 65 18.3 42 42 S 17 28 29.56 1001 7 11 N/A
6:15 pm 18:15 Sunny 91 32.5 66 19 45 45 S 10 17 29.56 1001 7 11 N/A
6:35 pm 18:35 Sunny 90 32.3 66 18.9 45 45 S 12 19 29.56 1001 10 16 N/A
6:55 pm 18:55 Sunny 85 29.7 67 19.5 54 54 S 7 11 29.59 1002 10 16 N/A
7:15 pm 19:15 Sunny 84 28.8 67 19.7 58 58 SSE 6 9 29.59 1002 10 16 N/A
7:35 pm 19:35 Sunny 83 28.3 68 20 61 61 SE 7 11 29.59 1002 10 16 N/A
7:55 pm 19:55 Partly Cloudy 83 28.1 68 20 61 61 SSE 7 11 29.59 1002 10 16 N/A
8:15 pm 20:15 Partly Cloudy with Light Rain 81 27.1 70 21 69 69 SSE 7 11 29.65 1004 10 16 N/A
8:35 pm 20:35 Partly Cloudy 81 27.1 70 20.9 69 69 SSE 8 13 29.62 1003 10 16 N/A
8:55 pm 20:55 Partly Cloudy 81 27.2 69 20.7 68 68 SSW 6 9 29.65 1004 10 16 N/A
9:15 pm 21:15 Partly Cloudy with Thunderstorms 78 25.5 70 21.2 77 77 SW 10 17 29.68 1005 10 16 N/A
9:35 pm 21:35 Mostly Cloudy with Thunderstorms 73 22.7 63 17 70 70 SSW 17 28 29.74 1007 5 8 0.04 1.02
9:55 pm 21:55 Cloudy with Strong Thunderstorms 69 20.8 61 16.1 75 75 SSW 23 37 29.83 1010 5 8 0.15 3.81
10:15 pm 22:15 Cloudy 70 21.3 62 16.6 75 75 ESE 22 35 29.77 1008 7 11 0.26 6.60
10:35 pm 22:35 Cloudy 70 21 64 17.8 82 82 SE 13 20 29.77 1008 10 16 0.27 6.86
10:55 pm 22:55 Cloudy 71 21.4 64 18 81 81 E 9 15 29.74 1007 10 16 0.27 6.86
11:15 pm 23:15 Partly Cloudy 70 21.2 64 17.6 80 80 ESE 6 9 29.77 1008 10 16 N/A
11:35 pm 23:35 Partly Cloudy with Nearby Thunderstorms 69 20.8 64 18 84 84 N 6 9 29.77 1008 10 16 N/A
11:55 pm 23:55 Mostly Cloudy with Light Rain 71 21.5 64 17.8 80 80 NE 7 11 29.77 1008 10 16 0.03 0.76

Powered by AerisWeather